WX4BK-13 Weather Reports


time (UTC)temp
C
wind
direction
speed
KPH
gust
KPH
rain 1hr
cm
rain 24hr
cm
rain mn
cm
humidity
%
barometer
mb
20260906120325 21 0 0.0 0.0 0.00 0.00 0.00 9 1013.2
20260906115725 21 0 0.0 0.0 0.00 0.00 0.00 9 1013.2
20260906115425 21 0 0.0 0.0 0.00 0.00 0.00 9 1013.2
20260906114825 20 0 0.0 0.0 0.00 0.00 0.00 9 1013.1
20260906114525 20 0 0.0 0.0 0.00 0.00 0.00 9 1013.0
20260906114225 20 0 0.0 0.0 0.00 0.00 0.00 9 1013.1
20260906113925 20 0 0.0 0.0 0.00 0.00 0.00 9 1013.1
20260906113625 20 0 0.0 0.0 0.00 0.00 0.00 9 1013.1
20260906113325 20 0 0.0 0.0 0.00 0.00 0.00 9 1013.1
20260906113025 21 0 0.0 0.0 0.00 0.00 0.00 9 1013.0
20260906112725 21 0 0.0 0.0 0.00 0.00 0.00 9 1013.0
20260906112425 21 0 0.0 0.0 0.00 0.00 0.00 9 1013.1
20260906112124 21 0 0.0 0.0 0.00 0.00 0.00 9 1013.1
20260906111525 21 0 0.0 0.0 0.00 0.00 0.00 9 1013.0
20260906111224 21 0 0.0 0.0 0.00 0.00 0.00 9 1013.0
20260906110924 21 0 0.0 0.0 0.00 0.00 0.00 9 1013.0
20260906110624 21 0 0.0 0.0 0.00 0.00 0.00 9 1012.9
20260906110324 21 0 0.0 0.0 0.00 0.00 0.00 9 1012.9
20260906105724 21 0 0.0 0.0 0.00 0.00 0.00 9 1012.9
20260906105424 21 0 0.0 0.0 0.00 0.00 0.00 9 1012.9
20260906104824 21 0 0.0 0.0 0.00 0.00 0.00 9 1012.8
20260906104524 21 0 0.0 0.0 0.00 0.00 0.00 9 1012.9
20260906104224 21 0 0.0 0.0 0.00 0.00 0.00 9 1012.9
20260906103924 21 0 0.0 0.0 0.00 0.00 0.00 9 1012.9
20260906103624 21 0 0.0 0.0 0.00 0.00 0.00 9 1012.8
20260906103324 21 0 0.0 0.0 0.00 0.00 0.00 9 1012.8
20260906103024 21 0 0.0 0.0 0.00 0.00 0.00 9 1012.8
20260906102724 21 0 0.0 0.0 0.00 0.00 0.00 9 1012.8
20260906102424 21 0 0.0 0.0 0.00 0.00 0.00 9 1012.7
20260906102124 21 0 0.0 0.0 0.00 0.00 0.00 9 1012.7
20260906101524 21 0 0.0 0.0 0.00 0.00 0.00 9 1012.8
20260906101224 21 0 0.0 0.0 0.00 0.00 0.00 9 1012.8
20260906100924 21 0 0.0 0.0 0.00 0.00 0.00 9 1012.8
20260906100624 21 0 0.0 0.0 0.00 0.00 0.00 9 1012.8
20260906100324 21 0 0.0 0.0 0.00 0.00 0.00 9 1012.9
20260906095724 21 0 0.0 0.0 0.00 0.00 0.00 9 1012.9
20260906095424 21 0 0.0 0.0 0.00 0.00 0.00 9 1012.9
20260906094824 21 0 0.0 0.0 0.00 0.00 0.00 9 1012.8
20260906094524 21 0 0.0 0.0 0.00 0.00 0.00 9 1012.8
20260906094224 21 0 0.0 0.0 0.00 0.00 0.00 9 1012.8
20260906093924 21 6 3.2 8.0 0.00 0.00 0.00 9 1012.8
20260906093624 21 0 0.0 3.2 0.00 0.00 0.00 9 1012.8
20260906093324 21 0 0.0 0.0 0.00 0.00 0.00 9 1012.8
20260906093024 21 344 1.6 4.8 0.00 0.00 0.00 9 1012.8
20260906092724 21 337 1.6 3.2 0.00 0.00 0.00 9 1012.8
20260906092424 21 0 0.0 0.0 0.00 0.00 0.00 9 1012.7
20260906092124 21 0 0.0 0.0 0.00 0.00 0.00 9 1012.7
20260906091524 21 0 0.0 0.0 0.00 0.00 0.00 9 1012.6
20260906091224 21 0 0.0 0.0 0.00 0.00 0.00 9 1012.6
20260906090924 21 0 0.0 0.0 0.00 0.00 0.00 9 1012.6
20260906090624 21 0 0.0 0.0 0.00 0.00 0.00 9 1012.5
20260906090324 21 0 0.0 0.0 0.00 0.00 0.00 9 1012.5
20260906085724 21 0 0.0 0.0 0.00 0.00 0.00 9 1012.4
20260906085424 21 0 0.0 0.0 0.00 0.00 0.00 9 1012.3
20260906084824 21 0 0.0 0.0 0.00 0.00 0.00 9 1012.2
20260906084524 21 0 0.0 0.0 0.00 0.00 0.00 9 1012.2
20260906084224 21 0 0.0 0.0 0.00 0.00 0.00 9 1012.2
20260906083924 21 0 0.0 0.0 0.00 0.00 0.00 9 1012.2
20260906083624 21 0 0.0 0.0 0.00 0.00 0.00 9 1012.2
20260906083325 21 0 0.0 0.0 0.00 0.00 0.00 9 1012.2
20260906083025 21 0 0.0 0.0 0.00 0.00 0.00 9 1012.4
20260906082725 21 0 0.0 0.0 0.00 0.00 0.00 9 1012.4
20260906082425 21 0 0.0 0.0 0.00 0.00 0.00 9 1012.4
20260906082125 21 0 0.0 0.0 0.00 0.00 0.00 9 1012.5
20260906081525 21 0 0.0 0.0 0.00 0.00 0.00 9 1012.5
20260906081225 21 0 0.0 0.0 0.00 0.00 0.00 9 1012.5
20260906080925 21 0 0.0 0.0 0.00 0.00 0.00 9 1012.5
20260906080625 21 0 0.0 0.0 0.00 0.00 0.00 9 1012.5
20260906080325 21 0 0.0 0.0 0.00 0.00 0.00 9 1012.5
20260906075725 21 0 0.0 0.0 0.00 0.00 0.00 9 1012.4
20260906075425 21 0 0.0 0.0 0.00 0.00 0.00 9 1012.4
20260906074825 21 0 0.0 0.0 0.00 0.00 0.00 9 1012.5
20260906074525 21 0 0.0 0.0 0.00 0.00 0.00 9 1012.5
20260906074225 21 0 0.0 0.0 0.00 0.00 0.00 9 1012.4
20260906073925 21 0 0.0 0.0 0.00 0.00 0.00 9 1012.5
20260906073625 21 0 0.0 0.0 0.00 0.00 0.00 9 1012.5
20260906073325 21 0 0.0 0.0 0.00 0.00 0.00 9 1012.5
20260906073025 21 0 0.0 0.0 0.00 0.00 0.00 9 1012.4
20260906072725 21 0 0.0 0.0 0.00 0.00 0.00 9 1012.4
20260906072425 21 0 0.0 0.0 0.00 0.00 0.00 9 1012.3
20260906072125 21 0 0.0 0.0 0.00 0.00 0.00 9 1012.3
20260906071525 21 0 0.0 0.0 0.00 0.00 0.00 9 1012.4
20260906071225 21 0 0.0 0.0 0.00 0.00 0.00 9 1012.4
20260906070925 21 0 0.0 0.0 0.00 0.00 0.00 9 1012.4
20260906070625 21 0 0.0 0.0 0.00 0.00 0.00 9 1012.4
20260906070325 21 0 0.0 0.0 0.00 0.00 0.00 9 1012.3
20260906065724 21 0 0.0 0.0 0.00 0.00 0.00 9 1012.5
20260906065424 21 0 0.0 0.0 0.00 0.00 0.00 9 1012.4
20260906064824 21 0 0.0 0.0 0.00 0.00 0.00 9 1012.4
20260906064524 21 0 0.0 0.0 0.00 0.00 0.00 9 1012.4
20260906064224 21 0 0.0 0.0 0.00 0.00 0.00 9 1012.4
20260906063924 21 0 0.0 0.0 0.00 0.00 0.00 9 1012.5
20260906063624 21 0 0.0 0.0 0.00 0.00 0.00 9 1012.4
20260906063324 21 0 0.0 0.0 0.00 0.00 0.00 9 1012.4
20260906063024 21 0 0.0 0.0 0.00 0.00 0.00 9 1012.5
20260906062724 21 0 0.0 0.0 0.00 0.00 0.00 9 1012.6
20260906062424 21 0 0.0 0.0 0.00 0.00 0.00 9 1012.5
20260906062124 21 0 0.0 0.0 0.00 0.00 0.00 9 1012.5
20260906061524 21 0 0.0 0.0 0.00 0.00 0.00 9 1012.6
20260906061224 21 0 0.0 0.0 0.00 0.00 0.00 9 1012.6
20260906060925 21 0 0.0 0.0 0.00 0.00 0.00 9 1012.6
20260906060624 21 0 0.0 0.0 0.00 0.00 0.00 9 1012.6
20260906060324 21 0 0.0 0.0 0.00 0.00 0.00 9 1012.6
20260906055724 22 0 0.0 0.0 0.00 0.00 0.00 9 1012.6
20260906055424 22 0 0.0 0.0 0.00 0.00 0.00 9 1012.7
20260906054824 22 0 0.0 0.0 0.00 0.00 0.00 9 1012.6
20260906054524 22 0 0.0 0.0 0.00 0.00 0.00 9 1012.6
20260906054224 22 0 0.0 0.0 0.00 0.00 0.00 9 1012.6
20260906053924 22 0 0.0 0.0 0.00 0.00 0.00 9 1012.7
20260906053624 22 0 0.0 0.0 0.00 0.00 0.00 9 1012.7
20260906053324 22 0 0.0 0.0 0.00 0.00 0.00 9 1012.7
20260906053024 22 0 0.0 0.0 0.00 0.00 0.00 9 1012.8
20260906052724 22 0 0.0 0.0 0.00 0.00 0.00 9 1012.8
20260906052424 22 0 0.0 0.0 0.00 0.00 0.00 9 1012.8
20260906052124 22 0 0.0 0.0 0.00 0.00 0.00 9 1012.9
20260906051524 22 0 0.0 0.0 0.00 0.00 0.00 9 1013.1
20260906051224 22 0 0.0 0.0 0.00 0.00 0.00 9 1013.0
20260906050924 22 0 0.0 0.0 0.00 0.00 0.00 9 1013.0
20260906050624 22 0 0.0 0.0 0.00 0.00 0.00 9 1013.0
20260906050324 22 0 0.0 0.0 0.00 0.00 0.00 9 1013.0
20260906045724 22 0 0.0 0.0 0.00 0.00 0.00 9 1013.0
20260906045424 22 0 0.0 0.0 0.00 0.00 0.00 9 1013.0
20260906044824 22 0 0.0 0.0 0.00 0.00 0.00 9 1013.0
20260906044524 22 0 0.0 0.0 0.00 0.00 0.00 9 1013.0
20260906044224 22 0 0.0 0.0 0.00 0.00 0.00 9 1013.0
20260906043924 22 0 0.0 0.0 0.00 0.00 0.00 9 1013.1
20260906043624 22 0 0.0 0.0 0.00 0.00 0.00 9 1013.1
20260906043324 22 0 0.0 0.0 0.00 0.00 0.00 9 1013.1
20260906043024 22 0 0.0 0.0 0.00 0.00 0.00 9 1013.1
20260906042724 22 0 0.0 0.0 0.00 0.00 0.00 9 1013.1
20260906042424 22 0 0.0 0.0 0.00 0.00 0.00 9 1013.1
20260906042125 22 0 0.0 0.0 0.00 0.00 0.00 9 1013.0
20260906041525 23 0 0.0 0.0 0.00 0.00 0.00 9 1013.0
20260906041225 23 0 0.0 0.0 0.00 0.00 0.00 9 1012.9
20260906040925 23 0 0.0 0.0 0.00 0.00 0.00 9 1012.9
20260906040625 23 0 0.0 0.0 0.00 0.00 0.00 9 1012.9
20260906040325 23 0 0.0 0.0 0.00 0.00 0.00 9 1013.0
20260906035725 23 0 0.0 0.0 0.00 0.00 0.00 9 1013.1
20260906035425 23 0 0.0 0.0 0.00 0.00 0.00 9 1013.1
20260906034825 23 0 0.0 0.0 0.00 0.00 0.00 9 1013.2
20260906034525 23 0 0.0 0.0 0.00 0.00 0.00 9 1013.3
20260906034225 23 0 0.0 0.0 0.00 0.00 0.00 9 1013.1
20260906033925 23 0 0.0 0.0 0.00 0.00 0.00 9 1013.1
20260906033625 23 0 0.0 0.0 0.00 0.00 0.00 9 1013.0
20260906033325 23 0 0.0 0.0 0.00 0.00 0.00 9 1013.1
20260906033025 23 0 0.0 0.0 0.00 0.00 0.00 9 1013.0
20260906032725 23 0 0.0 0.0 0.00 0.00 0.00 9 1013.0
20260906032425 23 0 0.0 0.0 0.00 0.00 0.00 9 1013.1
20260906032125 23 0 0.0 0.0 0.00 0.00 0.00 9 1013.1
20260906031525 23 0 0.0 0.0 0.00 0.00 0.00 9 1013.2
20260906031225 23 0 0.0 0.0 0.00 0.00 0.00 9 1013.2
20260906030925 23 0 0.0 0.0 0.00 0.00 0.00 9 1013.2
20260906030625 24 0 0.0 0.0 0.00 0.00 0.00 9 1013.4
20260906030324 24 0 0.0 0.0 0.00 0.00 0.00 9 1013.3
20260906025725 24 0 0.0 0.0 0.00 0.00 0.00 9 1013.5
20260906025425 24 0 0.0 0.0 0.00 0.00 0.00 9 1013.5
20260906024825 24 0 0.0 0.0 0.00 0.00 0.00 9 1013.5
20260906024525 24 0 0.0 0.0 0.00 0.00 0.00 9 1013.4
20260906024225 24 0 0.0 0.0 0.00 0.00 0.00 9 1013.5
20260906023925 24 0 0.0 0.0 0.00 0.00 0.00 9 1013.5
20260906023624 24 0 0.0 0.0 0.00 0.00 0.00 9 1013.2
20260906023325 24 0 0.0 0.0 0.00 0.00 0.00 9 1013.1
20260906023025 25 0 0.0 0.0 0.00 0.00 0.00 9 1013.1
20260906022724 25 0 0.0 0.0 0.00 0.00 0.00 9 1013.0
20260906022424 25 0 0.0 0.0 0.00 0.00 0.00 9 1013.0
20260906022125 25 0 0.0 0.0 0.00 0.00 0.00 9 1013.1
20260906021524 25 0 0.0 0.0 0.00 0.00 0.00 9 1013.3
20260906021224 25 0 0.0 0.0 0.00 0.00 0.00 9 1013.3
20260906020924 25 0 0.0 1.6 0.00 0.00 0.00 9 1013.3
20260906020625 25 0 0.0 0.0 0.00 0.00 0.00 9 1013.4
20260906020324 25 0 0.0 0.0 0.00 0.00 0.00 9 1013.4
20260906015724 25 0 0.0 0.0 0.00 0.00 0.00 8 1013.4
20260906015424 25 0 0.0 0.0 0.00 0.00 0.00 8 1013.3
20260906014824 25 0 0.0 0.0 0.00 0.00 0.00 8 1013.1
20260906014524 25 0 0.0 0.0 0.00 0.00 0.00 8 1013.1
20260906014224 25 0 0.0 0.0 0.00 0.00 0.00 8 1012.9
20260906013924 25 0 0.0 0.0 0.00 0.00 0.00 8 1012.7
20260906013624 25 225 0.0 4.8 0.00 0.00 0.00 8 1012.5
20260906013324 25 216 1.6 3.2 0.00 0.00 0.00 8 1012.5
20260906013024 25 0 0.0 0.0 0.00 0.00 0.00 8 1012.7
20260906012724 25 0 0.0 0.0 0.00 0.00 0.00 8 1012.7
20260906012424 25 0 0.0 0.0 0.00 0.00 0.00 8 1012.7
20260906012124 25 0 0.0 0.0 0.00 0.00 0.00 8 1012.6
20260906011524 25 0 0.0 0.0 0.00 0.00 0.00 8 1012.2
20260906011224 25 0 0.0 0.0 0.00 0.00 0.00 8 1012.3
20260906010924 25 0 0.0 0.0 0.00 0.00 0.00 8 1012.4
20260906010624 25 0 0.0 0.0 0.00 0.00 0.00 8 1012.6
20260906010324 25 0 0.0 0.0 0.00 0.00 0.00 8 1012.6
20260906005724 26 0 0.0 0.0 0.00 0.00 0.00 8 1012.3
20260906005424 26 178 3.2 9.7 0.00 0.00 0.00 8 1012.2
20260906004824 26 0 0.0 0.0 0.00 0.00 0.00 8 1011.6
20260906004524 26 0 0.0 0.0 0.00 0.00 0.00 8 1011.4
20260906004224 26 0 0.0 0.0 0.00 0.00 0.00 8 1011.4
20260906003924 26 0 0.0 0.0 0.00 0.00 0.00 8 1011.3
20260906003624 26 0 0.0 0.0 0.00 0.00 0.00 8 1011.4
20260906003324 26 0 0.0 0.0 0.00 0.00 0.00 8 1011.3
20260906003024 26 0 0.0 0.0 0.00 0.00 0.00 8 1011.2
20260906002724 26 0 0.0 0.0 0.00 0.00 0.00 8 1011.1
20260906002424 26 0 0.0 0.0 0.00 0.00 0.00 8 1011.0
20260906002124 26 0 0.0 0.0 0.00 0.00 0.00 8 1010.9
20260906001524 26 0 0.0 0.0 0.00 0.00 0.00 8 1010.8
20260906001225 26 0 0.0 0.0 0.00 0.00 0.00 8 1010.8
20260906000925 27 0 0.0 0.0 0.00 0.00 0.00 8 1010.7
20260906000625 27 0 0.0 0.0 0.00 0.00 0.00 7 1010.9
20260906000326 27 0 0.0 0.0 0.00 0.00 0.00 7 1011.0
20260905235725 27 0 0.0 0.0 0.00 0.00 0.00 7 1011.0
20260905235425 27 0 0.0 0.0 0.00 0.00 0.00 7 1010.9
20260905234825 27 0 0.0 0.0 0.00 0.00 0.00 7 1010.9
20260905234525 27 0 0.0 0.0 0.00 0.00 0.00 7 1010.8
20260905234225 28 99 3.2 6.4 0.00 0.00 0.00 7 1010.6
20260905233925 28 0 0.0 0.0 0.00 0.00 0.00 7 1010.5
20260905233625 28 22 1.6 4.8 0.00 0.00 0.00 7 1010.5
20260905233325 28 78 3.2 6.4 0.00 0.00 0.00 7 1010.5
20260905233025 28 0 0.0 0.0 0.00 0.00 0.00 7 1010.5
20260905232725 28 0 0.0 0.0 0.00 0.00 0.00 7 1010.3
20260905232425 28 0 0.0 0.0 0.00 0.00 0.00 8 1010.5
20260905232125 28 0 0.0 0.0 0.00 0.00 0.00 8 1010.5
20260905231525 28 317 3.2 9.7 0.00 0.00 0.00 8 1010.5
20260905231225 29 0 0.0 0.0 0.00 0.00 0.00 7 1010.2
20260905230925 30 0 0.0 0.0 0.00 0.00 0.00 7 1010.0
20260905230625 30 0 0.0 0.0 0.00 0.00 0.00 7 1009.9
20260905230325 30 0 0.0 0.0 0.00 0.00 0.00 7 1010.0
20260905225725 30 0 0.0 0.0 0.00 0.00 0.00 7 1010.0
20260905225425 31 0 0.0 0.0 0.00 0.00 0.00 7 1009.9
20260905224825 32 0 0.0 0.0 0.00 0.00 0.00 6 1009.8
20260905224525 32 0 0.0 0.0 0.00 0.00 0.00 6 1009.8
20260905224225 33 0 0.0 0.0 0.00 0.00 0.00 6 1009.6
20260905223924 33 0 0.0 0.0 0.00 0.00 0.00 6 1009.6
20260905223624 32 0 0.0 0.0 0.00 0.00 0.00 6 1009.6
20260905223325 33 0 0.0 0.0 0.00 0.00 0.00 6 1009.5
20260905223024 34 0 0.0 0.0 0.00 0.00 0.00 5 1009.3
20260905222724 34 0 0.0 0.0 0.00 0.00 0.00 5 1009.3
20260905222425 33 0 0.0 0.0 0.00 0.00 0.00 5 1009.3
20260905222124 33 0 0.0 0.0 0.00 0.00 0.00 5 1009.3
20260905221524 32 0 0.0 0.0 0.00 0.00 0.00 5 1009.7
20260905221224 32 0 0.0 0.0 0.00 0.00 0.00 5 1009.6
20260905220924 32 0 0.0 0.0 0.00 0.00 0.00 5 1009.6
20260905220624 33 0 0.0 0.0 0.00 0.00 0.00 5 1009.6
20260905220325 33 0 0.0 0.0 0.00 0.00 0.00 5 1009.6
20260905215724 32 0 0.0 0.0 0.00 0.00 0.00 5 1009.7
20260905215425 32 0 0.0 0.0 0.00 0.00 0.00 5 1009.6
20260905214824 32 0 0.0 0.0 0.00 0.00 0.00 6 1009.5
20260905214524 32 0 0.0 0.0 0.00 0.00 0.00 6 1009.6
20260905214225 33 0 0.0 0.0 0.00 0.00 0.00 5 1009.5
20260905213925 32 166 1.6 4.8 0.00 0.00 0.00 5 1009.5
20260905213624 32 172 3.2 6.4 0.00 0.00 0.00 5 1009.6
20260905213324 33 0 0.0 0.0 0.00 0.00 0.00 5 1009.5
20260905213024 32 157 1.6 4.8 0.00 0.00 0.00 5 1009.5
20260905212724 32 178 3.2 6.4 0.00 0.00 0.00 5 1009.6
20260905212424 33 0 0.0 0.0 0.00 0.00 0.00 5 1009.5
20260905212124 32 0 0.0 0.0 0.00 0.00 0.00 5 1009.6
20260905211524 32 0 0.0 0.0 0.00 0.00 0.00 5 1009.7
20260905211224 32 0 0.0 0.0 0.00 0.00 0.00 5 1009.7
20260905210924 33 0 0.0 0.0 0.00 0.00 0.00 5 1009.7
20260905210624 32 0 0.0 0.0 0.00 0.00 0.00 5 1009.8
20260905210324 32 0 0.0 0.0 0.00 0.00 0.00 5 1009.8
20260905205724 32 0 0.0 0.0 0.00 0.00 0.00 5 1009.9
20260905205424 32 22 0.0 3.2 0.00 0.00 0.00 5 1010.0
20260905204824 32 0 0.0 0.0 0.00 0.00 0.00 5 1010.1
20260905204524 32 0 0.0 0.0 0.00 0.00 0.00 5 1010.1
20260905204224 32 0 0.0 0.0 0.00 0.00 0.00 5 1010.2
20260905203924 32 0 0.0 0.0 0.00 0.00 0.00 5 1010.2
20260905203624 32 0 0.0 0.0 0.00 0.00 0.00 5 1010.3
20260905203324 32 0 0.0 0.0 0.00 0.00 0.00 5 1010.3
20260905203024 32 146 3.2 4.8 0.00 0.00 0.00 5 1010.2
20260905202724 32 270 0.0 3.2 0.00 0.00 0.00 5 1010.2
20260905202424 32 0 0.0 3.2 0.00 0.00 0.00 5 1010.2
20260905202124 32 67 3.2 4.8 0.00 0.00 0.00 5 1010.2
20260905201524 33 0 0.0 0.0 0.00 0.00 0.00 5 1010.3
20260905201224 32 180 1.6 3.2 0.00 0.00 0.00 5 1010.3
20260905200924 32 0 0.0 0.0 0.00 0.00 0.00 5 1010.4
20260905200624 32 124 3.2 6.4 0.00 0.00 0.00 5 1010.4
20260905200325 32 270 1.6 4.8 0.00 0.00 0.00 5 1010.5
20260905195725 32 173 1.6 3.2 0.00 0.00 0.00 5 1010.6
20260905195425 32 6 3.2 4.8 0.00 0.00 0.00 5 1010.7
20260905194825 32 112 1.6 3.2 0.00 0.00 0.00 5 1010.8
20260905194525 32 170 3.2 6.4 0.00 0.00 0.00 5 1010.8
20260905194225 32 0 0.0 0.0 0.00 0.00 0.00 5 1010.8
20260905193925 32 0 0.0 0.0 0.00 0.00 0.00 5 1010.9
20260905193625 32 135 1.6 3.2 0.00 0.00 0.00 5 1011.0
20260905193325 32 137 3.2 3.2 0.00 0.00 0.00 5 1010.9
20260905193025 32 0 0.0 0.0 0.00 0.00 0.00 5 1010.9
20260905192725 32 120 1.6 4.8 0.00 0.00 0.00 5 1010.9
20260905192425 32 26 3.2 4.8 0.00 0.00 0.00 5 1010.9
20260905192125 32 76 3.2 4.8 0.00 0.00 0.00 5 1010.9
20260905191525 32 0 0.0 0.0 0.00 0.00 0.00 5 1010.9
20260905191225 32 97 1.6 3.2 0.00 0.00 0.00 5 1011.0
20260905190925 32 90 0.0 3.2 0.00 0.00 0.00 5 1011.1
20260905190625 33 301 6.4 9.7 0.00 0.00 0.00 5 1011.1
20260905190325 33 319 8.0 9.7 0.00 0.00 0.00 5 1011.1
20260905185725 32 0 0.0 0.0 0.00 0.00 0.00 6 1011.3
20260905185425 32 225 1.6 3.2 0.00 0.00 0.00 5 1011.4
20260905184825 32 22 1.6 4.8 0.00 0.00 0.00 5 1011.5
20260905184525 32 138 1.6 3.2 0.00 0.00 0.00 5 1011.6
20260905184225 32 255 1.6 3.2 0.00 0.00 0.00 6 1011.7
20260905183925 32 10 6.4 8.0 0.00 0.00 0.00 5 1011.7
20260905183625 32 90 3.2 4.8 0.00 0.00 0.00 6 1011.8
20260905183325 32 332 3.2 8.0 0.00 0.00 0.00 5 1011.8
20260905183024 32 124 4.8 4.8 0.00 0.00 0.00 5 1011.8
20260905182725 32 112 3.2 4.8 0.00 0.00 0.00 5 1011.8
20260905182425 32 315 4.8 8.0 0.00 0.00 0.00 5 1011.8
20260905182124 32 313 1.6 4.8 0.00 0.00 0.00 5 1011.9
20260905181524 32 315 6.4 11.3 0.00 0.00 0.00 5 1012.0
20260905181224 32 349 8.0 11.3 0.00 0.00 0.00 5 1011.9
20260905180924 32 322 6.4 8.0 0.00 0.00 0.00 5 1011.9
20260905180624 32 22 3.2 4.8 0.00 0.00 0.00 6 1012.0
20260905180324 32 0 0.0 0.0 0.00 0.00 0.00 6 1011.9
20260905175724 32 0 0.0 0.0 0.00 0.00 0.00 6 1012.1
20260905175424 32 22 3.2 3.2 0.00 0.00 0.00 6 1012.1
20260905174824 32 135 1.6 3.2 0.00 0.00 0.00 6 1012.3
20260905174524 32 42 3.2 4.8 0.00 0.00 0.00 6 1012.3
20260905174224 32 0 0.0 0.0 0.00 0.00 0.00 6 1012.4
20260905173924 32 296 4.8 8.0 0.00 0.00 0.00 6 1012.4
20260905173624 32 40 4.8 9.7 0.00 0.00 0.00 6 1012.4
20260905173324 32 74 3.2 4.8 0.00 0.00 0.00 6 1012.4
20260905173024 32 330 4.8 6.4 0.00 0.00 0.00 6 1012.6
20260905172724 32 9 6.4 8.0 0.00 0.00 0.00 6 1012.6
20260905172424 32 304 8.0 11.3 0.00 0.00 0.00 6 1012.6
20260905172124 32 279 4.8 9.7 0.00 0.00 0.00 6 1012.6
20260905171524 32 277 1.6 4.8 0.00 0.00 0.00 6 1012.7
20260905171224 32 36 4.8 6.4 0.00 0.00 0.00 6 1012.6
20260905170924 32 12 3.2 6.4 0.00 0.00 0.00 6 1012.7
20260905170624 31 0 0.0 0.0 0.00 0.00 0.00 6 1012.8
20260905170324 31 72 1.6 8.0 0.00 0.00 0.00 6 1012.8
20260905165724 31 359 4.8 8.0 0.00 0.00 0.00 6 1012.9
20260905165424 31 325 8.0 11.3 0.00 0.00 0.00 6 1012.9
20260905164824 31 353 6.4 11.3 0.00 0.00 0.00 6 1013.0
20260905164524 31 51 4.8 8.0 0.00 0.00 0.00 6 1013.1
20260905164224 31 292 4.8 11.3 0.00 0.00 0.00 6 1013.2
20260905163924 31 0 0.0 0.0 0.00 0.00 0.00 6 1013.2
20260905163624 31 22 4.8 6.4 0.00 0.00 0.00 6 1013.2
20260905163324 31 0 0.0 0.0 0.00 0.00 0.00 6 1013.2
20260905163024 31 345 4.8 8.0 0.00 0.00 0.00 6 1013.2
20260905162724 31 314 9.7 9.7 0.00 0.00 0.00 6 1013.2
20260905162424 31 294 6.4 8.0 0.00 0.00 0.00 6 1013.3
20260905162124 31 322 4.8 6.4 0.00 0.00 0.00 6 1013.4
20260905161524 31 351 4.8 9.7 0.00 0.00 0.00 6 1013.3
20260905161224 31 0 3.2 6.4 0.00 0.00 0.00 6 1013.3
20260905160924 31 332 3.2 4.8 0.00 0.00 0.00 6 1013.4
20260905160624 31 46 3.2 6.4 0.00 0.00 0.00 6 1013.5
20260905160324 31 296 6.4 9.7 0.00 0.00 0.00 6 1013.5
20260905155724 31 270 3.2 9.7 0.00 0.00 0.00 6 1013.5
20260905155424 31 39 6.4 9.7 0.00 0.00 0.00 6 1013.5
20260905154825 31 22 3.2 6.4 0.00 0.00 0.00 6 1013.6
20260905154525 32 302 8.0 12.9 0.00 0.00 0.00 6 1013.6
20260905154225 32 225 0.0 3.2 0.00 0.00 0.00 6 1013.5
20260905153925 31 296 3.2 4.8 0.00 0.00 0.00 7 1013.6
20260905153625 31 351 4.8 9.7 0.00 0.00 0.00 7 1013.7
20260905153325 30 350 6.4 8.0 0.00 0.00 0.00 7 1013.7
20260905153025 30 337 4.8 6.4 0.00 0.00 0.00 7 1013.8
20260905152725 30 239 3.2 8.0 0.00 0.00 0.00 7 1013.9
20260905152425 30 52 3.2 6.4 0.00 0.00 0.00 7 1013.9
20260905152125 30 270 0.0 3.2 0.00 0.00 0.00 7 1013.9
20260905151525 29 112 1.6 3.2 0.00 0.00 0.00 7 1013.9
20260905151225 29 42 6.4 8.0 0.00 0.00 0.00 7 1013.9
20260905150925 29 28 4.8 6.4 0.00 0.00 0.00 7 1013.9
20260905150625 30 358 3.2 6.4 0.00 0.00 0.00 7 1013.9
20260905150325 29 306 3.2 8.0 0.00 0.00 0.00 7 1013.9
20260905145725 29 307 4.8 6.4 0.00 0.00 0.00 7 1014.0
20260905145425 29 313 6.4 8.0 0.00 0.00 0.00 7 1014.0
20260905144825 29 0 0.0 0.0 0.00 0.00 0.00 7 1014.0
20260905144525 29 321 1.6 6.4 0.00 0.00 0.00 7 1014.1
20260905144225 29 323 8.0 9.7 0.00 0.00 0.00 7 1014.1
20260905143925 29 319 6.4 11.3 0.00 0.00 0.00 7 1014.1
20260905143625 28 0 0.0 0.0 0.00 0.00 0.00 7 1014.2
20260905143325 28 247 0.0 3.2 0.00 0.00 0.00 7 1014.1
20260905143025 30 292 1.6 4.8 0.00 0.00 0.00 7 1014.0
20260905142725 30 0 0.0 0.0 0.00 0.00 0.00 7 1014.0
20260905142425 29 0 0.0 0.0 0.00 0.00 0.00 7 1014.1
20260905142124 29 0 0.0 0.0 0.00 0.00 0.00 7 1014.1
20260905141524 28 292 1.6 4.8 0.00 0.00 0.00 8 1014.2
20260905141224 28 315 3.2 4.8 0.00 0.00 0.00 7 1014.2
20260905140924 28 315 0.0 3.2 0.00 0.00 0.00 8 1014.3
20260905140624 27 337 3.2 9.7 0.00 0.00 0.00 8 1014.4
20260905140324 27 299 6.4 9.7 0.00 0.00 0.00 8 1014.4
20260905135724 27 317 4.8 6.4 0.00 0.00 0.00 8 1014.5
20260905135424 27 304 3.2 4.8 0.00 0.00 0.00 8 1014.5
20260905134824 26 292 3.2 9.7 0.00 0.00 0.00 8 1014.6
20260905134524 26 301 6.4 11.3 0.00 0.00 0.00 8 1014.7
20260905134224 26 345 1.6 4.8 0.00 0.00 0.00 8 1014.7
20260905133924 26 333 4.8 6.4 0.00 0.00 0.00 9 1014.7
20260905133624 25 0 0.0 0.0 0.00 0.00 0.00 9 1014.8
20260905133324 25 322 1.6 6.4 0.00 0.00 0.00 9 1014.8
20260905133024 24 0 0.0 0.0 0.00 0.00 0.00 9 1015.0
20260905132724 24 0 0.0 0.0 0.00 0.00 0.00 9 1015.0
20260905132424 23 180 3.2 6.4 0.00 0.00 0.00 9 1015.1
20260905132124 23 180 1.6 6.4 0.00 0.00 0.00 9 1015.2
20260905131524 23 0 0.0 0.0 0.00 0.00 0.00 9 1015.3
20260905131224 23 0 0.0 0.0 0.00 0.00 0.00 9 1015.4
20260905130924 23 0 0.0 0.0 0.00 0.00 0.00 9 1015.4
20260905130624 22 0 0.0 0.0 0.00 0.00 0.00 9 1015.4
20260905130324 22 0 0.0 0.0 0.00 0.00 0.00 9 1015.5
20260905125724 22 0 0.0 0.0 0.00 0.00 0.00 9 1015.6
20260905125424 22 0 0.0 0.0 0.00 0.00 0.00 9 1015.6
20260905124824 22 0 0.0 0.0 0.00 0.00 0.00 9 1015.6
20260905124524 22 0 0.0 0.0 0.00 0.00 0.00 9 1015.6
20260905124224 22 0 0.0 0.0 0.00 0.00 0.00 9 1015.6
20260905123924 21 0 0.0 0.0 0.00 0.00 0.00 9 1015.6
20260905123624 21 0 0.0 0.0 0.00 0.00 0.00 9 1015.6
20260905123324 21 0 0.0 0.0 0.00 0.00 0.00 9 1015.7
20260905123024 21 0 0.0 0.0 0.00 0.00 0.00 9 1015.7
20260905122724 21 0 0.0 0.0 0.00 0.00 0.00 9 1015.6
20260905122424 21 0 0.0 0.0 0.00 0.00 0.00 9 1015.6
20260905122124 21 0 0.0 0.0 0.00 0.00 0.00 9 1015.5
20260905121524 21 0 0.0 0.0 0.00 0.00 0.00 9 1015.5
20260905121224 20 0 0.0 0.0 0.00 0.00 0.00 9 1015.5
20260905120924 20 0 0.0 0.0 0.00 0.00 0.00 9 1015.5
20260905120624 20 0 0.0 0.0 0.00 0.00 0.00 9 1015.4